Wind_Speed
3 4 4 3 3 4 4 5 4 4 6 6 7 7 7 7 7 8 9 9 9 9 7 7 8 7 8 8 7 6 5 5 5 5 5 4 4 3 3 3 3 3 3
2 3 4 4 3 4 4 5 4 4 5 6 6 7 7 7 7 8 8 9 8 8 8 7 7 7 8 8 7 6 5 5 4 5 4 4 3 3 3 3 3 3 3
3 3 3 4 4 4 4 5 5 5 6 7 6 7 7 7 7 8 8 8 8 8 8 7 7 7 7 8 7 5 5 4 4 4 3 3 2 2 2 3 2 2 2
3 4 4 4 4 4 5 5 6 6 6 6 6 6 7 6 6 7 7 8 8 8 7 7 7 7 7 6 5 5 4 3 3 3 2 2 2 2 2 2 2 2 1
4 5 5 4 4 5 6 6 6 6 6 5 6 6 6 6 6 6 6 7 7 7 7 7 7 7 6 5 4 3 3 3 2 2 2 2 2 2 2 1 1 1 0
5 5 5 5 5 5 6 7 7 6 5 5 6 6 5 6 6 6 5 5 6 6 6 5 5 6 5 4 3 3 2 2 1 2 2 2 2 1 1 1 0 1 1
5 5 5 5 5 5 6 7 7 6 5 5 5 6 6 5 5 5 4 5 4 4 4 4 5 5 4 4 4 3 3 3 3 3 3 2 1 1 1 1 2 2 3
6 6 5 5 5 5 5 5 5 5 5 5 5 5 5 4 4 4 4 3 3 2 2 3 4 4 3 3 3 4 3 4 4 3 4 3 2 2 2 3 3 3 3
6 6 5 5 5 5 5 4 4 4 4 4 4 4 4 4 4 3 3 2 2 2 2 2 2 2 2 1 1 3 3 3 3 4 4 3 3 3 3 2 3 3 3
5 5 5 5 4 4 4 4 4 4 4 3 3 3 3 3 3 2 1 2 2 2 2 1 1 1 1 1 2 2 3 4 4 4 4 4 3 3 3 3 4 4 4
6 5 5 4 4 4 3 3 3 3 3 3 3 3 3 3 2 2 2 2 2 2 2 1 1 0 1 2 2 3 4 4 4 4 5 5 4 4 3 4 4 4 5
6 5 4 4 4 4 3 2 2 2 2 2 2 2 2 2 1 1 1 1 2 1 1 1 0 1 2 3 3 4 4 4 5 5 6 5 5 5 5 5 5 5 5
7 6 6 5 4 4 4 3 2 1 1 1 2 2 1 1 1 1 1 1 0 0 0 0 1 2 3 4 4 5 5 4 5 6 6 6 6 6 6 6 6 7 7
7 7 7 6 5 5 4 3 3 2 2 2 1 1 1 1 2 1 1 1 1 1 2 3 3 3 3 4 4 5 6 5 6 6 6 7 6 6 6 6 7 7 7
7 7 6 6 5 4 4 3 2 2 1 0 0 0 0 1 1 1 1 2 2 2 3 4 4 4 4 5 6 6 6 6 6 6 6 6 6 6 7 7 7 8 8
7 7 6 6 5 5 4 3 2 2 1 1 1 0 0 1 2 2 2 2 3 3 4 4 4 5 5 6 6 6 6 7 6 7 7 6 7 7 7 7 8 8 8
7 6 6 6 6 6 5 4 4 3 3 2 1 0 1 1 2 3 2 2 3 4 4 4 4 5 5 6 7 7 6 7 7 7 7 7 7 7 7 7 7 9 9
7 6 6 6 6 6 5 5 5 4 4 3 2 1 2 2 2 3 3 3 4 4 5 5 5 5 6 7 7 7 7 7 7 7 6 7 7 7 7 8 9 9 9
8 7 6 6 6 7 6 6 5 5 4 3 2 2 2 2 3 3 4 4 4 5 5 5 5 6 6 7 7 7 7 7 7 7 7 7 7 8 8 8 9 10 9
8 7 7 6 6 7 7 7 6 5 4 4 2 2 2 2 3 4 5 5 5 5 6 6 6 7 7 7 7 7 8 8 7 7 7 7 7 7 8 8 9 10 10
8 7 7 6 6 7 7 7 6 5 5 5 3 3 2 3 4 4 5 5 6 6 6 7 7 7 7 7 7 7 8 8 8 8 7 7 7 7 8 9 10 10 10
7 6 6 6 7 7 8 8 7 6 6 6 5 4 4 4 5 5 6 6 7 7 7 7 7 7 7 8 8 8 9 8 8 8 8 7 8 9 9 10 10 10 10
7 6 7 7 8 8 8 8 8 7 6 6 7 6 5 5 6 6 6 6 7 7 7 7 7 8 8 9 9 10 10 10 9 9 8 8 8 9 9 9 9 10 11
7 6 7 7 8 8 8 8 8 7 7 7 7 7 6 6 6 6 6 7 7 8 7 8 8 8 9 9 10 10 11 11 10 10 9 9 9 9 10 11 11 12 12
7 6 6 8 8 8 8 8 8 8 7 8 8 7 7 7 7 7 7 7 8 8 9 9 9 9 10 10 10 11 11 11 11 10 10 11 11 11 12 12 12 13 13
7 6 6 7 8 8 8 9 8 8 8 9 8 8 8 8 8 8 8 8 9 9 10 10 10 10 11 11 11 11 12 12 12 12 12 12 12 13 13 14 14 15 15
Wind_Direction
144 143 142 142 141 142 151 152 153 157 152 147 145 140 139 142 144 147 151 148 144 144 145 150 146 146 147 147 150 152 150 136 128 129 129 127 111 95 87 80 78 83 81
130 138 140 141 141 143 152 151 155 156 152 149 149 150 148 144 147 152 157 157 153 149 147 147 149 150 150 150 153 157 152 142 142 139 128 119 108 105 101 93 74 73 89
120 121 123 134 134 133 146 153 154 145 140 148 150 149 148 147 149 152 160 161 158 156 155 155 153 150 150 153 155 158 161 155 159 152 140 131 107 108 105 98 81 74 98
99 96 98 121 119 115 128 144 150 143 145 144 150 143 142 146 147 147 152 158 160 160 155 159 164 159 156 159 160 157 157 163 163 170 166 160 133 120 129 100 74 80 129
90 91 90 97 107 114 126 136 140 135 143 142 145 147 148 152 156 149 149 157 159 158 161 166 166 162 164 167 165 166 166 171 175 193 192 180 166 136 128 117 86 47 275
88 88 90 92 98 106 118 130 136 137 142 141 140 145 150 151 149 148 154 159 161 164 166 170 174 174 171 172 180 183 196 201 212 228 221 208 193 175 151 155 259 303 266
86 80 80 87 95 98 108 117 129 135 141 140 142 145 139 137 137 147 151 150 156 167 173 183 177 181 189 194 198 212 221 224 241 233 233 231 197 191 190 234 269 269 257
87 81 78 80 80 83 88 99 106 118 126 133 133 131 130 132 146 148 144 146 162 160 161 165 169 175 201 216 221 229 236 239 242 244 245 261 256 251 257 274 265 248 249
84 80 78 77 81 88 94 96 96 103 114 123 130 128 127 128 141 152 145 143 150 146 140 143 166 198 211 210 223 242 252 252 241 254 260 264 270 282 280 260 251 253 262
77 77 79 76 77 82 87 87 93 97 106 112 118 123 115 118 121 124 131 119 119 126 120 123 152 202 234 264 263 274 271 263 261 265 265 269 277 280 279 278 283 274 272
71 72 71 69 76 75 71 74 84 94 109 107 108 116 115 119 115 102 83 95 100 119 115 108 134 229 259 269 282 292 290 279 274 272 272 272 272 276 273 281 282 281 279
62 62 66 70 73 63 58 59 52 76 104 107 110 116 116 107 83 75 51 77 76 74 109 129 265 305 295 290 292 294 298 303 287 281 283 286 277 271 270 278 278 278 277
53 53 56 64 65 60 54 55 51 54 93 106 109 107 96 85 54 57 43 48 75 359 241 209 329 321 305 298 291 292 293 291 294 287 286 291 277 270 275 276 274 277 278
48 47 54 61 67 70 62 52 50 59 68 80 105 80 71 35 12 24 35 21 336 322 305 301 315 314 302 293 295 290 289 286 291 289 284 285 280 276 275 273 273 277 279
47 49 57 51 56 61 62 47 40 50 48 1 190 149 83 355 347 343 349 338 322 318 316 311 315 313 305 302 299 295 293 292 291 286 289 286 281 279 279 278 276 278 281
47 49 51 47 41 42 43 35 30 32 29 304 283 264 278 331 330 323 316 313 321 328 329 323 319 322 315 312 308 305 304 299 298 292 295 288 278 280 287 283 276 273 276
44 45 44 41 39 40 37 30 25 23 8 338 312 315 314 317 322 324 320 320 325 330 331 330 324 321 321 320 311 306 306 305 301 297 289 287 281 280 282 286 283 279 279
40 37 32 35 36 35 33 28 23 17 8 0 353 333 314 312 319 314 310 310 317 323 321 319 315 318 320 319 317 315 313 311 304 302 292 286 281 279 279 283 286 288 287
33 32 33 35 32 29 26 22 21 16 11 6 357 331 307 300 311 313 310 305 308 310 312 313 315 314 317 316 315 315 318 314 308 305 297 293 286 282 282 280 282 288 292
25 30 32 32 33 31 26 24 26 21 17 13 3 336 307 301 312 318 317 308 302 304 306 308 310 313 317 314 315 315 316 315 312 310 301 299 293 284 285 285 285 291 293
20 27 29 27 25 23 23 23 27 26 21 21 15 2 337 318 318 317 317 313 304 303 306 307 306 307 314 316 316 316 314 312 307 311 306 303 297 291 288 288 288 291 292
21 22 22 19 16 20 21 20 19 22 19 15 10 360 349 336 331 323 320 321 315 308 308 311 309 310 308 312 316 317 317 315 311 312 307 297 297 299 294 292 291 293 294
13 15 13 16 17 16 14 16 18 16 16 14 9 0 347 341 335 331 326 325 323 319 312 310 309 309 309 308 307 307 309 313 311 312 309 300 300 304 299 300 301 302 300
2 2 4 5 7 10 11 10 8 3 5 6 4 0 352 346 343 338 336 329 325 321 313 310 310 312 311 313 313 309 308 311 313 315 312 308 305 302 298 300 304 303 299
350 349 355 359 358 358 358 357 356 355 359 2 359 353 348 345 343 338 333 330 329 328 323 319 317 316 313 312 313 313 313 312 312 312 308 304 302 301 298 296 299 301 300
341 344 345 346 347 347 346 345 346 348 349 350 350 349 347 343 339 336 331 327 323 322 322 321 316 314 313 311 311 310 310 310 309 308 306 303 301 300 300 299 297 298 300
Height
5871 5871 5871 5872 5872 5872 5872 5872 5872 5872 5873 5873 5873 5873 5874 5874 5875 5875 5877 5879 5880 5881 5883 5884 5885 5887 5888 5890 5891 5892 5893 5894 5894 5895 5896 5897 5897 5897 5898 5898 5899 5899 5899
5872 5871 5872 5872 5872 5872 5873 5873 5873 5873 5873 5873 5874 5874 5874 5875 5876 5877 5878 5880 5881 5883 5884 5885 5886 5888 5889 5890 5892 5893 5894 5894 5895 5896 5896 5897 5897 5897 5898 5898 5899 5899 5899
5872 5872 5872 5873 5873 5873 5872 5873 5874 5874 5874 5874 5875 5875 5876 5876 5877 5878 5880 5881 5883 5884 5885 5886 5888 5889 5890 5891 5892 5893 5894 5895 5895 5896 5896 5897 5897 5897 5898 5898 5899 5899 5900
5873 5873 5873 5873 5874 5873 5873 5873 5874 5875 5875 5875 5876 5876 5877 5878 5879 5880 5881 5883 5884 5885 5886 5887 5888 5889 5890 5892 5893 5894 5895 5895 5896 5896 5897 5897 5897 5898 5898 5899 5899 5899 5900
5875 5874 5874 5875 5875 5875 5874 5875 5875 5876 5876 5877 5877 5878 5879 5880 5881 5882 5883 5884 5885 5886 5887 5888 5889 5890 5891 5892 5893 5894 5894 5895 5896 5896 5896 5897 5897 5898 5898 5899 5899 5900 5900
5876 5876 5876 5876 5877 5876 5876 5876 5877 5877 5878 5878 5879 5879 5880 5881 5882 5883 5884 5885 5886 5887 5887 5888 5889 5890 5892 5893 5894 5894 5895 5895 5896 5896 5896 5897 5897 5897 5898 5899 5899 5900 5900
5878 5878 5877 5878 5878 5878 5878 5878 5878 5879 5880 5880 5881 5881 5882 5883 5883 5884 5885 5886 5887 5887 5887 5888 5889 5891 5892 5893 5894 5894 5895 5895 5896 5896 5896 5896 5896 5897 5898 5898 5899 5899 5900
5879 5879 5879 5879 5879 5880 5880 5880 5880 5880 5881 5882 5882 5883 5883 5884 5885 5885 5886 5887 5887 5887 5887 5887 5889 5891 5892 5893 5894 5894 5895 5895 5896 5896 5896 5896 5897 5897 5898 5898 5899 5899 5899
5881 5881 5880 5880 5881 5881 5881 5881 5882 5882 5883 5883 5884 5884 5885 5885 5886 5886 5887 5887 5888 5888 5888 5889 5890 5892 5893 5893 5894 5894 5895 5895 5895 5896 5896 5897 5897 5897 5898 5898 5898 5899 5899
5882 5882 5882 5882 5882 5883 5883 5883 5883 5884 5884 5884 5885 5885 5886 5886 5887 5887 5888 5888 5889 5889 5890 5890 5891 5892 5893 5893 5894 5894 5894 5895 5895 5896 5896 5896 5897 5897 5898 5898 5898 5899 5899
5884 5884 5884 5884 5884 5884 5884 5885 5885 5885 5885 5885 5886 5886 5887 5888 5888 5889 5889 5889 5890 5890 5891 5891 5892 5893 5893 5893 5894 5894 5894 5894 5895 5895 5895 5896 5896 5897 5897 5898 5898 5898 5899
5886 5885 5885 5885 5885 5886 5886 5886 5886 5886 5887 5887 5887 5887 5888 5889 5890 5890 5890 5891 5891 5891 5892 5892 5892 5893 5893 5893 5894 5894 5894 5894 5894 5894 5894 5894 5895 5896 5896 5897 5897 5898 5898
5887 5887 5887 5887 5886 5886 5887 5887 5887 5887 5887 5887 5888 5888 5889 5890 5890 5890 5891 5891 5892 5892 5892 5892 5893 5893 5893 5893 5894 5894 5894 5894 5893 5893 5893 5894 5894 5895 5895 5896 5896 5897 5897
5889 5889 5888 5888 5888 5888 5888 5888 5888 5888 5888 5888 5889 5889 5890 5890 5891 5891 5891 5892 5892 5892 5892 5892 5892 5893 5893 5893 5893 5893 5893 5892 5892 5892 5892 5893 5893 5894 5894 5895 5895 5895 5895
5891 5890 5890 5890 5889 5889 5889 5889 5889 5889 5889 5889 5889 5889 5890 5890 5891 5891 5892 5892 5892 5892 5892 5892 5892 5892 5893 5893 5893 5892 5892 5891 5891 5891 5891 5892 5892 5893 5893 5893 5894 5894 5894
5893 5892 5891 5891 5891 5890 5890 5890 5889 5889 5889 5889 5889 5889 5890 5890 5891 5891 5891 5892 5892 5892 5892 5892 5892 5892 5892 5892 5892 5891 5891 5891 5890 5890 5890 5890 5890 5891 5892 5892 5892 5893 5893
5894 5894 5893 5893 5892 5891 5891 5891 5890 5890 5889 5889 5888 5889 5890 5890 5891 5891 5891 5892 5892 5892 5892 5892 5892 5892 5892 5891 5891 5890 5890 5890 5889 5888 5888 5888 5889 5890 5890 5891 5891 5891 5891
5895 5895 5895 5894 5893 5893 5892 5892 5891 5890 5889 5889 5888 5889 5889 5890 5891 5891 5891 5891 5891 5891 5891 5891 5891 5891 5891 5891 5890 5890 5889 5889 5888 5887 5887 5887 5887 5888 5889 5889 5889 5890 5889
5897 5896 5896 5895 5895 5894 5893 5893 5892 5891 5890 5889 5889 5889 5889 5890 5891 5891 5891 5891 5891 5891 5891 5891 5891 5891 5890 5890 5889 5889 5888 5888 5887 5886 5886 5886 5886 5887 5887 5888 5888 5888 5888
5898 5897 5897 5897 5896 5895 5894 5894 5893 5892 5891 5890 5890 5890 5890 5891 5891 5891 5891 5891 5891 5891 5891 5890 5890 5890 5889 5889 5888 5888 5887 5887 5886 5885 5885 5885 5885 5885 5886 5886 5886 5886 5886
5899 5898 5898 5898 5897 5896 5895 5894 5894 5893 5892 5892 5891 5891 5891 5891 5891 5891 5890 5890 5890 5890 5890 5890 5889 5889 5889 5888 5888 5887 5886 5885 5885 5884 5884 5884 5884 5884 5884 5884 5884 5883 5883
5900 5899 5899 5898 5898 5897 5896 5895 5894 5894 5893 5893 5892 5892 5891 5891 5891 5890 5890 5890 5890 5889 5889 5889 5888 5888 5888 5887 5886 5886 5885 5885 5884 5883 5882 5882 5882 5882 5882 5881 5881 5881 5881
5900 5900 5900 5899 5898 5898 5897 5896 5895 5895 5894 5894 5893 5892 5892 5891 5891 5890 5890 5890 5889 5889 5888 5888 5887 5887 5886 5886 5885 5885 5884 5883 5882 5882 5881 5880 5880 5880 5880 5879 5879 5878 5878
5901 5901 5900 5900 5899 5898 5898 5897 5896 5895 5894 5894 5894 5893 5892 5892 5891 5890 5890 5889 5889 5888 5887 5887 5886 5885 5885 5884 5883 5882 5882 5881 5880 5880 5879 5879 5878 5878 5878 5877 5877 5876 5875
5902 5901 5900 5900 5899 5899 5898 5897 5896 5895 5895 5894 5894 5893 5893 5892 5891 5890 5889 5889 5888 5887 5886 5886 5885 5884 5883 5882 5882 5881 5880 5879 5878 5878 5877 5877 5876 5876 5875 5875 5874 5873 5872
5902 5901 5901 5900 5900 5899 5898 5897 5896 5896 5895 5894 5894 5893 5892 5892 5891 5890 5889 5888 5887 5886 5885 5884 5883 5883 5882 5881 5880 5879 5878 5877 5876 5876 5875 5874 5874 5873 5872 5872 5871 5870 5869